[[{"header":{"parameterUnit":"m.s-1","parameterCategory":2,"la1":30.2991,"la2":30.254,"lo1":-89.0895,"lo2":-89.0444,"dy":0.0017,"dx":0.0017,"nx":28,"ny":28,"refTime":"2025-04-03T21:00:00:Z","depth":"0","parameterNumber":2,"parameterNumberName":"U-component_of_CURRENTS"},"data":[0,0,0,0,0,0,0,0,0,0,0,0,0,0,0,0,0,0,0,0,0,0,0,0,0,0,0,0,0,0,0,0,0,0,0,0,0,0,0,0,0,0,0,0,0,0,0,0,0,0,0,0,0,0,0,0,0,0,0.2417,0.2417,0,0.2435,0.2435,0.2435,0.2421,0.2421,0.242,0.242,0.2406,0.2406,0.2406,0,0,0,0,0,0,0,0,0,0,0,0,0,0.2377,0.2378,0.2417,0.2417,0.2417,0.2435,0.2435,0.2435,0.2421,0.2421,0.242,0.242,0.2406,0.2406,0.2406,0,0,0,0,0,0,0,0,0,0,0,0,0,0.2393,0.2378,0.2417,0.2414,0.2414,0.2435,0.2435,0.2435,0.2421,0.2421,0.242,0.242,0.2406,0.2406,0.2406,0.2418,0,0,0.2406,0.2406,0,0,0,0,0,0,0,0,0.2392,0.2394,0.2414,0.2414,0.2415,0.2427,0.2416,0.2428,0.2422,0.2417,0.242,0.2419,0.2412,0.2411,0.2414,0.2418,0.2417,0.2406,0.2406,0.2406,0.2406,0,0,0,0,0,0,0,0.2391,0.2393,0.2422,0.2415,0.2415,0.2415,0.2416,0.2418,0.2415,0.2417,0.2417,0.2422,0.2411,0.2414,0.2413,0.2417,0.2406,0.2406,0.2406,0.2406,0.2457,0.2458,0,0,0,0,0,0,0.2393,0.2392,0.2421,0.2423,0.2404,0.2416,0.2417,0.2422,0.2416,0.2415,0.2422,0.2421,0.2414,0.2413,0.2412,0.2441,0.2406,0.2406,0.2406,0.2455,0.2457,0.2458,0,0,0,0,0,0,0.2392,0.2395,0.2421,0.2409,0.2413,0.2417,0.2423,0.2423,0.2428,0.2421,0.2419,0.2429,0.2413,0.2412,0.2424,0.2439,0.2406,0.2406,0.2454,0.2456,0.2458,0.2488,0,0,0,0,0,0,0.2391,0.2395,0.2399,0.2409,0.2413,0.2439,0.2423,0.2423,0.2433,0.2432,0.2426,0.2423,0.2413,0.2425,0.2424,0.2439,0.2406,0.2452,0.2455,0.2457,0.2485,0.2491,0.2496,0,0,0,0,0,0.2389,0.24,0.2399,0.2402,0.2419,0.244,0.2443,0.2442,0.2434,0.2443,0.2441,0.2424,0.2441,0.2426,0.2425,0.244,0.2451,0.2454,0.2457,0.2483,0.249,0.2495,0,0,0,0,0,0,0.2384,0.24,0.2399,0.2413,0.2428,0.2439,0.2449,0.2448,0.2454,0.2452,0.2438,0.2437,0.2457,0.2448,0.2432,0.2465,0.2444,0.2447,0.2464,0.2471,0.2476,0.2476,0.2406,0,0,0,0,0,0.2386,0.2397,0.2413,0.2425,0.2434,0.2442,0.2451,0.2453,0.2461,0.2462,0.2458,0.2459,0.247,0.2469,0.2477,0.249,0.2494,0.2502,0.2507,0.2511,0.2513,0.2542,0.255,0.2468,0.2468,0.2468,0,0,0.2386,0.2398,0.2403,0.2425,0.2436,0.2452,0.2446,0.2465,0.2477,0.246,0.2473,0.2479,0.2481,0.2499,0.2507,0.249,0.2538,0.2515,0.2518,0.2518,0.2546,0.2554,0.2561,0.2471,0.247,0.247,0,0,0.2397,0.2406,0.242,0.2435,0.2458,0.2466,0.2474,0.2489,0.2494,0.2511,0.2508,0.2524,0.253,0.2537,0.254,0.258,0.2571,0.2584,0.26,0.2629,0.2635,0.2641,0.266,0.2668,0.2579,0.2579,0.2579,0,0.2397,0.2415,0.2428,0.2447,0.246,0.2473,0.249,0.2502,0.2518,0.2529,0.252,0.2552,0.2549,0.2578,0.259,0.259,0.2603,0.2573,0.2634,0.264,0.2646,0.2664,0.2671,0.2581,0.258,0.258,0.258,0,0.2417,0.2432,0.2445,0.2469,0.2486,0.2507,0.2526,0.2544,0.255,0.256,0.2593,0.2598,0.2615,0.2621,0.2613,0.2655,0.265,0.2642,0.2615,0.2655,0.2672,0.268,0.2583,0.2582,0.2582,0.2582,0,0,0.2413,0.2451,0.2454,0.246,0.25,0.2508,0.2544,0.2574,0.2588,0.2611,0.2634,0.266,0.2665,0.267,0.2671,0.2689,0.2735,0.268,0.2681,0.2692,0.2797,0.2795,0.2802,0.2739,0.274,0.2741,0.2794,0,0.2424,0.2449,0.2474,0.2493,0.2505,0.2535,0.2561,0.2588,0.2612,0.2638,0.2664,0.2685,0.2683,0.269,0.2715,0.2734,0.2756,0.2721,0.2762,0.2763,0.2751,0.2812,0.2756,0.2799,0.2801,0.2802,0.2803,0,0.2434,0.2447,0.2467,0.2491,0.25,0.2515,0.2552,0.2581,0.2633,0.2653,0.2695,0.2712,0.2756,0.2739,0.2803,0.2783,0.2794,0.2804,0.2806,0.2798,0.2775,0.276,0.2812,0.2775,0.2814,0.2813,0.2813,0,0.2404,0.2439,0.2448,0.2458,0.2493,0.2507,0.2531,0.2582,0.2608,0.2666,0.2693,0.2747,0.2778,0.2811,0.2848,0.2826,0.2913,0.2883,0.2893,0.2893,0.285,0.2844,0.2864,0.2926,0.2926,0.2925,0.2925,0,0.24,0.2404,0.2428,0.2429,0.2439,0.2475,0.2497,0.2539,0.2596,0.2629,0.2695,0.2735,0.2799,0.2857,0.2871,0.2923,0.294,0.2913,0.2915,0.286,0.2854,0.2822,0.2779,0.2927,0.2927,0.2926,0.2926,0,0.2367,0.2387,0.2391,0.2416,0.2423,0.2429,0.2473,0.249,0.256,0.2611,0.2633,0.2741,0.2825,0.2889,0.2952,0.2957,0.2915,0.3002,0.2934,0.2927,0.2881,0.284,0.2677,0.259,0.3013,0.3014,0.3014,0,0.2352,0.2351,0.2367,0.2362,0.2372,0.2386,0.2399,0.2464,0.2493,0.2609,0.2634,0.2746,0.2817,0.2938,0.298,0.303,0.2923,0.2992,0.2937,0.2889,0.2846,0.2661,0.2586,0.2892,0.2892,0.2891,0.2891,0,0.2321,0.2328,0.2328,0.2317,0.2319,0.2318,0.2346,0.2361,0.2446,0.2505,0.2593,0.2664,0.282,0.2879,0.2975,0.2989,0.285,0.2981,0.2951,0.2777,0.2555,0.2469,0.2841,0.2886,0.2886,0.2887,0.2887,0.2887,0.2295,0.2283,0.2278,0.2261,0.2259,0.2235,0.2211,0.2257,0.2294,0.2359,0.249,0.2577,0.2764,0.2903,0.2903,0.2913,0.2804,0.2853,0.2817,0.2639,0.2523,0.2887,0.2921,0.2921,0.2922,0.2923,0.2923,0,0.2248,0.2234,0.2218,0.2183,0.2144,0.2164,0.2159,0.2125,0.2135,0.2256,0.2329,0.251,0.2624,0.2755,0.2858,0.2779,0.2604,0.271,0.2456,0.2396,0.2768,0.2738,0.271,0.271,0.271,0.271,0.271,0.271,0.2222,0.2182,0.2164,0.2072,0.2043,0.1953,0.1926,0.1909,0.1965,0.2033,0.2136,0.2254,0.2537,0.2736,0.2749,0.2671,0.243,0.2313,0.226,0.2583,0.2593,0.2603,0.2567,0.2504,0.2504,0.1795,0.179,0.1786]},{"header":{"parameterUnit":"m.s-1","parameterCategory":2,"la1":30.2991,"la2":30.254,"lo1":-89.0895,"lo2":-89.0444,"dy":0.0017,"dx":0.0017,"nx":28,"ny":28,"refTime":"2025-04-03T21:00:00:Z","depth":"0","parameterNumber":3,"parameterNumberName":"V-component_of_CURRENTS"},"data":[0,0,0,0,0,0,0,0,0,0,0,0,0,0,0,0,0,0,0,0,0,0,0,0,0,0,0,0,0,0,0,0,0,0,0,0,0,0,0,0,0,0,0,0,0,0,0,0,0,0,0,0,0,0,0,0,0,0,0.0146,0.0146,0,0.0093,0.0092,0.0092,0.0056,0.0056,0.0056,0.0056,-0.0013,-0.0015,-0.0016,0,0,0,0,0,0,0,0,0,0,0,0,0,0.0171,0.0171,0.0146,0.0146,0.0145,0.0093,0.0092,0.0091,0.0056,0.0056,0.0056,0.0056,-0.0012,-0.0014,-0.0016,0,0,0,0,0,0,0,0,0,0,0,0,0,0.0142,0.0171,0.0146,0.0122,0.012,0.0093,0.0092,0.0091,0.0056,0.0056,0.0056,0.0056,-0.0012,-0.0014,-0.0017,-0.003,0,0,-0.0025,-0.0026,0,0,0,0,0,0,0,0,0.0144,0.0141,0.0126,0.0124,0.0121,0.0083,0.0076,0.005,0.0056,0.0078,0.0056,0.0056,0.0019,0.0014,0.0002,-0.0033,-0.0036,-0.0025,-0.0027,-0.0028,-0.0028,0,0,0,0,0,0,0,0.0146,0.0143,0.0123,0.0126,0.0123,0.0099,0.0095,0.0071,0.0048,0.0076,0.0074,0.0071,0.0017,0.0004,-0.0,-0.0037,-0.0025,-0.0027,-0.0029,-0.003,-0.0081,-0.0081,0,0,0,0,0,0,0.0159,0.0145,0.0125,0.0122,0.0134,0.0099,0.0094,0.0094,0.0049,0.0043,0.0071,0.007,0.0009,0.0003,-0.0003,-0.0004,-0.0028,-0.003,-0.0032,-0.0081,-0.0081,-0.0081,0,0,0,0,0,0,0.0159,0.0157,0.0127,0.0133,0.0128,0.0099,0.0098,0.0093,0.0083,0.0046,0.0039,0.0069,0.0009,0.0001,-0.0017,-0.0008,-0.0031,-0.0034,-0.0082,-0.0081,-0.0081,-0.0018,0,0,0,0,0,0,0.016,0.0158,0.0161,0.0134,0.0128,0.0119,0.0099,0.0092,0.0082,0.008,0.0041,0.0034,0.0008,-0.0013,-0.002,-0.0012,-0.0036,-0.0082,-0.0081,-0.0081,-0.0021,-0.0016,-0.0012,0,0,0,0,0,0.0161,0.0171,0.0161,0.0159,0.0134,0.012,0.0115,0.0092,0.0083,0.0082,0.0057,0.0035,-0.0016,-0.0015,-0.0023,-0.0015,-0.0082,-0.0082,-0.0081,-0.0023,-0.0017,-0.0012,0,0,0,0,0,0,0.0182,0.0167,0.0157,0.016,0.0144,0.0115,0.0113,0.0097,0.0076,0.0075,0.0038,0.0029,0.0016,-0.0009,-0.0008,-0.003,-0.0052,-0.0054,-0.0005,-0.0,0.0004,0.0021,-0.0038,0,0,0,0,0,0.0189,0.0192,0.0171,0.0173,0.0169,0.0141,0.0133,0.012,0.0098,0.0088,0.0061,0.0033,0.001,-0.0001,-0.0027,-0.0038,-0.0061,-0.0039,-0.0034,-0.003,-0.0023,-0.0049,-0.0046,-0.0079,-0.0079,-0.0079,0,0,0.0197,0.0189,0.0191,0.0178,0.0163,0.0166,0.0136,0.013,0.0133,0.0084,0.0078,0.0047,0.001,-0.0002,-0.001,-0.002,-0.0034,-0.003,-0.0026,-0.0021,-0.0048,-0.0045,-0.0042,-0.0079,-0.0079,-0.0079,0,0,0.0221,0.021,0.0223,0.0214,0.0201,0.0186,0.0189,0.0164,0.0153,0.0141,0.0109,0.0087,0.0049,0.0029,0.0013,0.0026,-0.001,0.0015,0.0052,0.0027,0.003,0.0032,0.0008,0.0007,0.0018,0.0018,0.0018,0,0.0232,0.0245,0.0223,0.0234,0.0234,0.0201,0.0216,0.0201,0.0173,0.017,0.0148,0.0098,0.0065,0.0055,0.0058,0.0037,0.0016,0.0037,0.0034,0.0036,0.0037,0.0011,0.001,0.0021,0.0021,0.0021,0.002,0,0.0267,0.0276,0.0284,0.0288,0.0284,0.0291,0.0271,0.0267,0.0247,0.0227,0.0209,0.016,0.0133,0.0116,0.0089,0.0084,0.0064,0.0043,0.0025,0.0044,0.0015,0.0013,0.0026,0.0025,0.0024,0.0023,0,0,0.0297,0.0308,0.0311,0.0326,0.0316,0.0319,0.0326,0.0322,0.0334,0.0292,0.0298,0.0247,0.0217,0.0197,0.0158,0.0132,0.0117,0.0095,0.0092,0.0079,0.0062,0.0064,0.0061,0.0095,0.0095,0.0095,0.004,0,0.0333,0.0371,0.0363,0.0397,0.0416,0.0393,0.0406,0.0397,0.0377,0.0372,0.0319,0.0303,0.0249,0.0237,0.0204,0.0143,0.0113,0.0134,0.0039,0.0036,0.0041,0.0059,0.0113,0.007,0.0037,0.0037,0.0036,0,0.0376,0.0395,0.0435,0.0462,0.0468,0.0479,0.0496,0.0503,0.0485,0.0466,0.0436,0.0393,0.0353,0.03,0.0207,0.0224,0.015,0.0094,0.009,0.007,0.0033,0.0043,0.0066,-0.0022,0.0032,0.0032,0.0033,0,0.0417,0.045,0.0485,0.0492,0.0511,0.0525,0.0536,0.0531,0.0552,0.0525,0.0529,0.0467,0.0446,0.0348,0.0237,0.022,0.0133,0.0094,0.0024,0.0022,0.0039,0.004,-0.0026,0.0024,0.0024,0.0024,0.0024,0,0.0463,0.0493,0.0507,0.0526,0.0576,0.0571,0.0615,0.0614,0.0624,0.0657,0.0582,0.0594,0.0457,0.0392,0.027,0.0153,0.0158,0.0037,0.0012,0.0062,0.0065,-0.0035,-0.0093,0.0022,0.0023,0.0023,0.0023,0,0.0504,0.0513,0.0557,0.0583,0.0595,0.0631,0.0675,0.0711,0.0705,0.0745,0.0743,0.0697,0.0617,0.0476,0.0327,0.0211,0.0034,0.0037,0.0107,0.0091,-0.006,-0.0116,-0.023,-0.0297,-0.0051,-0.0051,-0.0051,0,0.053,0.0555,0.0599,0.063,0.0642,0.0689,0.0729,0.0747,0.0791,0.0815,0.0848,0.0791,0.0775,0.0565,0.0363,0.0163,0.004,0.0056,0.0029,-0.0052,-0.0134,-0.0189,-0.0241,0.0071,0.0072,0.0073,0.0073,0,0.0577,0.0588,0.0621,0.0684,0.0728,0.0787,0.0845,0.0895,0.0926,0.0971,0.1026,0.102,0.0841,0.0697,0.0424,0.0266,0.0006,0.0063,-0.0037,-0.0052,-0.01,-0.018,0.0084,0.0079,0.0079,0.0078,0.0078,0.0078,0.061,0.0641,0.0682,0.0741,0.0798,0.0874,0.0929,0.1009,0.1099,0.1182,0.1175,0.1219,0.1009,0.0666,0.0425,0.0077,0.0033,-0.0025,-0.0089,-0.0141,-0.0192,0.0087,0.0063,0.0062,0.0062,0.0061,0.0061,0,0.0651,0.0681,0.0738,0.0806,0.0872,0.0895,0.1,0.1067,0.1185,0.1308,0.137,0.1374,0.1082,0.0752,0.0299,0.0009,-0.0139,-0.0157,-0.0217,-0.027,-0.0022,-0.0002,-0.002,-0.002,-0.002,-0.002,-0.002,-0.002,0.0673,0.0726,0.0747,0.0849,0.0902,0.0989,0.105,0.1165,0.1283,0.1465,0.1583,0.1649,0.1521,0.0643,0.0055,-0.0116,-0.0341,-0.0384,-0.0529,-0.0337,-0.0329,-0.0322,-0.0316,-0.04,-0.0401,-0.0731,-0.0734,-0.0736]}],[{"header":{"parameterUnit":"m.s-1","parameterCategory":2,"la1":30.2991,"la2":30.254,"lo1":-89.0895,"lo2":-89.0444,"dy":0.0017,"dx":0.0017,"nx":28,"ny":28,"refTime":"2025-04-03T21:00:00:Z","depth":"2","parameterNumber":2,"parameterNumberName":"U-component_of_CURRENTS"},"data":[0,0,0,0,0,0,0,0,0,0,0,0,0,0,0,0,0,0,0,0,0,0,0,0,0,0,0,0,0,0,0,0,0,0,0,0,0,0,0,0,0,0,0,0,0,0,0,0,0,0,0,0,0,0,0,0,0,0,0.2414,0.2415,0,0.2433,0.2433,0.2433,0.2423,0.2422,0.2422,0.2421,0.2411,0.2411,0.2411,0,0,0,0,0,0,0,0,0,0,0,0,0,0.2375,0.2376,0.2414,0.2415,0.2415,0.2433,0.2433,0.2433,0.2423,0.2422,0.2422,0.2421,0.2411,0.2411,0.2411,0,0,0,0,0,0,0,0,0,0,0,0,0,0.2391,0.2376,0.2414,0.2413,0.2414,0.2433,0.2433,0.2433,0.2423,0.2422,0.2422,0.2421,0.2411,0.2411,0.2411,0.2422,0,0,0.2411,0.2411,0,0,0,0,0,0,0,0,0.239,0.2392,0.2413,0.2413,0.2414,0.2427,0.2416,0.2429,0.2423,0.2417,0.2421,0.2421,0.2415,0.2415,0.2417,0.2422,0.2422,0.2411,0.2411,0.2411,0.2412,0,0,0,0,0,0,0,0.2389,0.2392,0.242,0.2414,0.2414,0.2414,0.2416,0.2418,0.2417,0.2418,0.2417,0.2423,0.2415,0.2417,0.2417,0.2421,0.2411,0.2411,0.2412,0.2412,0.2464,0.2465,0,0,0,0,0,0,0.2391,0.2391,0.2419,0.2421,0.2402,0.2415,0.2417,0.2421,0.2418,0.2417,0.2423,0.2422,0.2417,0.2417,0.2417,0.2446,0.2411,0.2412,0.2412,0.2462,0.2464,0.2465,0,0,0,0,0,0,0.239,0.2393,0.2419,0.2407,0.2411,0.2417,0.2422,0.2422,0.2429,0.2422,0.2421,0.243,0.2417,0.2416,0.2429,0.2445,0.2412,0.2412,0.2461,0.2463,0.2465,0.2495,0,0,0,0,0,0,0.2389,0.2393,0.2397,0.2408,0.2412,0.2437,0.2423,0.2423,0.2434,0.2433,0.2428,0.2426,0.2417,0.243,0.243,0.2444,0.2412,0.2459,0.2462,0.2464,0.2492,0.2498,0.2502,0,0,0,0,0,0.2387,0.2398,0.2397,0.2401,0.2417,0.2438,0.2441,0.2441,0.2435,0.2444,0.2443,0.2427,0.2445,0.2431,0.243,0.2446,0.2458,0.2461,0.2464,0.249,0.2496,0.2502,0,0,0,0,0,0,0.2382,0.2398,0.2397,0.2411,0.2427,0.2437,0.2448,0.2448,0.2454,0.2453,0.2441,0.244,0.2461,0.2453,0.2437,0.2471,0.245,0.2454,0.247,0.2477,0.2482,0.2482,0.2412,0,0,0,0,0,0.2384,0.2396,0.2411,0.2423,0.2433,0.2441,0.245,0.2453,0.2461,0.2463,0.246,0.2462,0.2474,0.2474,0.2483,0.2496,0.25,0.2508,0.2513,0.2517,0.2519,0.2548,0.2556,0.2475,0.2475,0.2475,0,0,0.2385,0.2396,0.2402,0.2423,0.2434,0.2451,0.2445,0.2465,0.2476,0.2461,0.2475,0.2482,0.2485,0.2504,0.2512,0.2496,0.2544,0.2521,0.2525,0.2524,0.2552,0.256,0.2567,0.2477,0.2477,0.2477,0,0,0.2396,0.2405,0.2419,0.2434,0.2456,0.2464,0.2472,0.2489,0.2494,0.2512,0.251,0.2527,0.2534,0.2541,0.2545,0.2585,0.2576,0.259,0.2606,0.2634,0.264,0.2646,0.2665,0.2672,0.2584,0.2585,0.2585,0,0.2396,0.2413,0.2427,0.2445,0.2458,0.2471,0.2489,0.2501,0.2518,0.2529,0.2521,0.2555,0.2553,0.2582,0.2594,0.2595,0.2607,0.2579,0.2639,0.2645,0.2651,0.2668,0.2676,0.2586,0.2586,0.2586,0.2586,0,0.2416,0.2431,0.2444,0.2468,0.2484,0.2505,0.2524,0.2543,0.255,0.256,0.2594,0.2601,0.2618,0.2625,0.2617,0.2659,0.2655,0.2647,0.262,0.266,0.2677,0.2684,0.2589,0.2588,0.2588,0.2587,0,0,0.2412,0.2449,0.2453,0.2458,0.2498,0.2506,0.2542,0.2572,0.2587,0.2611,0.2635,0.2661,0.2667,0.2673,0.2675,0.2693,0.2739,0.2684,0.2685,0.2696,0.28,0.2794,0.2801,0.2743,0.2744,0.2746,0.2796,0,0.2423,0.2447,0.2471,0.2491,0.2503,0.2533,0.2558,0.2587,0.2611,0.2638,0.2664,0.2686,0.2685,0.2693,0.2718,0.2737,0.2759,0.2725,0.2765,0.2766,0.2751,0.281,0.2557,0.2582,0.2803,0.2805,0.2805,0,0.2432,0.2445,0.2465,0.249,0.2499,0.2513,0.2551,0.258,0.2633,0.2653,0.2695,0.2713,0.2757,0.2742,0.2805,0.2785,0.2797,0.2807,0.2809,0.2797,0.2774,0.2578,0.2586,0.2817,0.2816,0.2816,0.2815,0,0.2402,0.2438,0.2447,0.2457,0.2492,0.2507,0.2531,0.2582,0.2608,0.2667,0.2694,0.2747,0.2779,0.2812,0.2849,0.2828,0.2914,0.2884,0.2891,0.289,0.2679,0.2658,0.2926,0.2926,0.2926,0.2926,0.2926,0,0.2398,0.2403,0.2428,0.2429,0.244,0.2476,0.2499,0.254,0.2598,0.263,0.2696,0.2736,0.28,0.2857,0.2872,0.292,0.2939,0.291,0.2912,0.2685,0.2665,0.2868,0.286,0.2928,0.2928,0.2927,0.2927,0,0.2366,0.2387,0.2392,0.2417,0.2425,0.2431,0.2477,0.2494,0.2564,0.2614,0.2637,0.2743,0.2825,0.2888,0.295,0.2954,0.2989,0.2996,0.273,0.2701,0.2935,0.2929,0.3002,0.3002,0.3003,0.3003,0.3003,0,0.2352,0.2351,0.2368,0.2364,0.2375,0.239,0.2403,0.2469,0.2498,0.2612,0.2636,0.2746,0.2811,0.2928,0.2931,0.2969,0.302,0.2774,0.2693,0.2953,0.2947,0.294,0.2933,0.2415,0.2411,0.2407,0.2404,0,0.2321,0.2328,0.2329,0.2321,0.2323,0.2323,0.2353,0.2368,0.2452,0.2507,0.2591,0.2656,0.2773,0.2715,0.2792,0.2776,0.2749,0.2703,0.3035,0.2458,0.241,0.2402,0.2412,0.2371,0.2374,0.2376,0.2378,0.2379,0.2296,0.2285,0.228,0.2266,0.2265,0.2242,0.2218,0.2255,0.2286,0.2326,0.2458,0.2477,0.253,0.2525,0.2467,0.2428,0.2624,0.2503,0.2509,0.252,0.2466,0.2424,0.2375,0.2378,0.2381,0.2384,0.2386,0,0.2243,0.2237,0.2222,0.2189,0.2144,0.2173,0.2168,0.2119,0.2111,0.2177,0.2219,0.2081,0.2059,0.2115,0.2002,0.204,0.1958,0.1961,0.1813,0.1851,0.1883,0.1789,0.1523,0.152,0.1517,0.1514,0,0,0.2215,0.2174,0.2156,0.2065,0.2043,0.195,0.1923,0.1881,0.1888,0.1846,0.1834,0.1956,0.2066,0.1757,0.1732,0.1605,0.1704,0.1541,0.2239,0.2103,0.2131,0.2213,0.2116,0,0,0,0,0]},{"header":{"parameterUnit":"m.s-1","parameterCategory":2,"la1":30.2991,"la2":30.254,"lo1":-89.0895,"lo2":-89.0444,"dy":0.0017,"dx":0.0017,"nx":28,"ny":28,"refTime":"2025-04-03T21:00:00:Z","depth":"2","parameterNumber":3,"parameterNumberName":"V-component_of_CURRENTS"},"data":[0,0,0,0,0,0,0,0,0,0,0,0,0,0,0,0,0,0,0,0,0,0,0,0,0,0,0,0,0,0,0,0,0,0,0,0,0,0,0,0,0,0,0,0,0,0,0,0,0,0,0,0,0,0,0,0,0,0,0.0096,0.0096,0,0.0044,0.0043,0.0042,0.0007,0.0007,0.0007,0.0006,-0.0061,-0.0062,-0.0064,0,0,0,0,0,0,0,0,0,0,0,0,0,0.012,0.012,0.0096,0.0095,0.0095,0.0044,0.0043,0.0042,0.0007,0.0007,0.0007,0.0006,-0.006,-0.0062,-0.0064,0,0,0,0,0,0,0,0,0,0,0,0,0,0.0091,0.012,0.0096,0.0073,0.007,0.0044,0.0043,0.0042,0.0007,0.0007,0.0006,0.0006,-0.0059,-0.0062,-0.0064,-0.0078,0,0,-0.0072,-0.0073,0,0,0,0,0,0,0,0,0.0093,0.009,0.0076,0.0074,0.0071,0.0033,0.0027,0.0002,0.0007,0.0029,0.0006,0.0006,-0.0029,-0.0034,-0.0046,-0.0081,-0.0084,-0.0073,-0.0074,-0.0075,-0.0076,0,0,0,0,0,0,0,0.0095,0.0092,0.0073,0.0076,0.0073,0.0049,0.0045,0.0022,-0.0001,0.0027,0.0025,0.0022,-0.0031,-0.0044,-0.0048,-0.0085,-0.0072,-0.0075,-0.0076,-0.0077,-0.0127,-0.0126,0,0,0,0,0,0,0.0108,0.0094,0.0075,0.0072,0.0084,0.0049,0.0045,0.0044,-0.0,-0.0006,0.0022,0.002,-0.0039,-0.0045,-0.0051,-0.0051,-0.0075,-0.0078,-0.0079,-0.0127,-0.0126,-0.0126,0,0,0,0,0,0,0.0109,0.0107,0.0077,0.0083,0.0078,0.005,0.0049,0.0043,0.0034,-0.0003,-0.001,0.002,-0.004,-0.0047,-0.0065,-0.0055,-0.0079,-0.0081,-0.0127,-0.0127,-0.0126,-0.0063,0,0,0,0,0,0,0.011,0.0107,0.0111,0.0084,0.0078,0.007,0.0049,0.0042,0.0033,0.0031,-0.0008,-0.0014,-0.004,-0.0061,-0.0067,-0.0059,-0.0083,-0.0127,-0.0127,-0.0126,-0.0066,-0.0061,-0.0057,0,0,0,0,0,0.0111,0.012,0.0111,0.0109,0.0084,0.0071,0.0065,0.0043,0.0034,0.0033,0.0008,-0.0013,-0.0063,-0.0062,-0.007,-0.0062,-0.0128,-0.0127,-0.0126,-0.0068,-0.0062,-0.0057,0,0,0,0,0,0,0.0132,0.0117,0.0106,0.011,0.0095,0.0066,0.0064,0.0049,0.0028,0.0027,-0.001,-0.0019,-0.0031,-0.0056,-0.0055,-0.0076,-0.0099,-0.01,-0.0051,-0.0046,-0.0042,-0.0026,-0.0085,0,0,0,0,0,0.0139,0.0142,0.0121,0.0124,0.012,0.0093,0.0084,0.0071,0.005,0.004,0.0014,-0.0014,-0.0036,-0.0048,-0.0073,-0.0083,-0.0107,-0.0084,-0.0079,-0.0075,-0.0068,-0.0095,-0.0092,-0.0125,-0.0125,-0.0125,0,0,0.0147,0.014,0.0141,0.0129,0.0114,0.0117,0.0087,0.0082,0.0085,0.0037,0.0031,0.0,-0.0036,-0.0047,-0.0055,-0.0066,-0.0079,-0.0074,-0.007,-0.0066,-0.0094,-0.0091,-0.0088,-0.0124,-0.0124,-0.0124,0,0,0.0172,0.0161,0.0174,0.0166,0.0153,0.0138,0.0141,0.0117,0.0106,0.0094,0.0063,0.0041,0.0004,-0.0016,-0.0032,-0.0019,-0.0055,-0.0029,0.0008,-0.0018,-0.0015,-0.0013,-0.0038,-0.0039,-0.0026,-0.0025,-0.0025,0,0.0183,0.0196,0.0175,0.0186,0.0186,0.0153,0.0168,0.0153,0.0126,0.0123,0.0102,0.0052,0.002,0.001,0.0013,-0.0007,-0.0029,-0.0007,-0.0011,-0.0009,-0.0008,-0.0034,-0.0036,-0.0022,-0.0023,-0.0023,-0.0023,0,0.0218,0.0228,0.0235,0.024,0.0236,0.0243,0.0224,0.022,0.02,0.0181,0.0163,0.0115,0.0088,0.0072,0.0045,0.0039,0.0019,-0.0001,-0.002,-0.0001,-0.003,-0.0033,-0.0018,-0.0019,-0.002,-0.0021,0,0,0.0249,0.0259,0.0263,0.0276,0.0267,0.027,0.0278,0.0274,0.0285,0.0244,0.025,0.02,0.0171,0.015,0.0112,0.0086,0.0071,0.005,0.0047,0.0033,0.0015,0.0016,0.0013,0.005,0.0049,0.0049,-0.0008,0,0.0284,0.0321,0.0314,0.0347,0.0366,0.0344,0.0356,0.0347,0.0327,0.0322,0.027,0.0255,0.0202,0.0191,0.0158,0.0096,0.0066,0.0088,-0.0009,-0.0011,-0.0006,0.0011,0.001,-0.0039,-0.0011,-0.0011,-0.0012,0,0.0326,0.0345,0.0385,0.0411,0.0417,0.0428,0.0444,0.0451,0.0433,0.0414,0.0384,0.0342,0.0302,0.0251,0.0158,0.0175,0.0102,0.0046,0.0042,0.0021,-0.0014,-0.0056,-0.0046,-0.0017,-0.0016,-0.0016,-0.0015,0,0.0366,0.0399,0.0434,0.0441,0.0459,0.0474,0.0484,0.0479,0.0499,0.0472,0.0475,0.0414,0.0392,0.0295,0.0186,0.0171,0.0081,0.0044,-0.0027,-0.0028,-0.0058,-0.0061,-0.0027,-0.0027,-0.0027,-0.0026,-0.0026,0,0.0412,0.0441,0.0456,0.0474,0.0523,0.0518,0.0562,0.056,0.057,0.0601,0.0527,0.0538,0.0403,0.0337,0.0217,0.01,0.0105,-0.0013,-0.0039,-0.0036,-0.0037,-0.0043,-0.0044,-0.0029,-0.0028,-0.0028,-0.0027,0,0.0452,0.0461,0.0505,0.0531,0.0543,0.0577,0.062,0.0655,0.0649,0.0687,0.0685,0.0638,0.0557,0.0418,0.0271,0.0156,0.0031,-0.0017,-0.0001,-0.0023,-0.0074,-0.0071,-0.0104,-0.0104,-0.0105,-0.0105,-0.0105,0,0.0477,0.0503,0.0546,0.0577,0.0589,0.0635,0.0674,0.0691,0.0733,0.0754,0.0785,0.0728,0.0706,0.0497,0.0285,0.0085,0.0052,-0.0056,-0.0089,-0.0058,-0.008,-0.0077,-0.0074,-0.0112,-0.0112,-0.0112,-0.0112,0,0.0523,0.0534,0.0568,0.0629,0.0673,0.073,0.0786,0.0835,0.0864,0.0902,0.0952,0.0942,0.0751,0.0563,0.0288,0.0141,-0.0024,-0.0066,-0.0039,-0.0082,-0.0068,-0.0088,-0.0085,-0.0114,-0.0114,-0.0114,-0.0114,-0.0114,0.0556,0.0586,0.0626,0.0685,0.0741,0.0814,0.0868,0.0927,0.1007,0.1045,0.1058,0.1017,0.082,0.0465,0.0237,-0.0025,-0.0011,-0.0126,-0.0125,-0.0124,-0.0104,-0.009,-0.0138,-0.0138,-0.0138,-0.0138,-0.0138,0,0.0589,0.0625,0.0681,0.0748,0.0802,0.0836,0.0936,0.0963,0.1048,0.1089,0.1113,0.0901,0.0714,0.0476,0.0099,-0.0108,-0.0142,-0.0189,-0.0186,-0.0182,-0.0179,-0.0163,-0.0212,-0.0213,-0.0214,-0.0214,0,0,0.0608,0.0656,0.0677,0.0769,0.0828,0.0887,0.0945,0.0988,0.102,0.1035,0.1021,0.1003,0.0765,0.0475,0.0202,-0.0008,-0.006,-0.0063,0.0017,0.0056,0.0061,-0.0122,-0.0089,0,0,0,0,0]}],[{"header":{"parameterUnit":"m.s-1","parameterCategory":2,"la1":30.2991,"la2":30.254,"lo1":-89.0895,"lo2":-89.0444,"dy":0.0017,"dx":0.0017,"nx":28,"ny":28,"refTime":"2025-04-03T21:00:00:Z","depth":"4","parameterNumber":2,"parameterNumberName":"U-component_of_CURRENTS"},"data":[0,0,0,0,0,0,0,0,0,0,0,0,0,0,0,0,0,0,0,0,0,0,0,0,0,0,0,0,0,0,0,0,0,0,0,0,0,0,0,0,0,0,0,0,0,0,0,0,0,0,0,0,0,0,0,0,0,0,0.1539,0.1539,0,0.1591,0.1592,0.1593,0.1641,0.1641,0.1642,0.1643,0.1714,0.1715,0.1716,0,0,0,0,0,0,0,0,0,0,0,0,0,0.1482,0.1483,0.1539,0.1539,0.154,0.1591,0.1592,0.1593,0.1641,0.1641,0.1642,0.1643,0.1713,0.1715,0.1716,0,0,0,0,0,0,0,0,0,0,0,0,0,0.1517,0.1483,0.1538,0.1571,0.1574,0.1591,0.1592,0.1593,0.164,0.1641,0.1642,0.1643,0.1713,0.1715,0.1717,0.1709,0,0,0.1722,0.1723,0,0,0,0,0,0,0,0,0.1515,0.1519,0.1565,0.1569,0.1573,0.1611,0.1598,0.1633,0.164,0.1614,0.1643,0.1644,0.1681,0.1686,0.1692,0.1712,0.1715,0.1723,0.1724,0.1725,0.1725,0,0,0,0,0,0,0,0.1512,0.1517,0.1559,0.1566,0.157,0.1584,0.159,0.1605,0.1641,0.1617,0.1621,0.1627,0.1683,0.169,0.1694,0.1716,0.1723,0.1724,0.1725,0.1726,0.1841,0.1843,0,0,0,0,0,0,0.1506,0.1515,0.1557,0.156,0.1547,0.1584,0.1591,0.1597,0.1641,0.1648,0.1627,0.163,0.1686,0.1692,0.1697,0.1783,0.1725,0.1726,0.1728,0.1839,0.1841,0.1843,0,0,0,0,0,0,0.1505,0.151,0.1555,0.1539,0.1546,0.1584,0.1591,0.1598,0.1639,0.1648,0.1656,0.1664,0.1687,0.1694,0.1744,0.1783,0.1727,0.1729,0.1837,0.184,0.1842,0.1896,0,0,0,0,0,0,0.1503,0.1509,0.1528,0.1539,0.1547,0.1588,0.159,0.1598,0.1639,0.1645,0.1683,0.1688,0.1688,0.1741,0.1746,0.1784,0.1731,0.1834,0.1838,0.1841,0.1892,0.19,0.1907,0,0,0,0,0,0.1501,0.1517,0.1528,0.1534,0.1566,0.1589,0.1595,0.1623,0.1641,0.1663,0.1694,0.1689,0.1767,0.1744,0.1749,0.1789,0.1833,0.1837,0.1841,0.1888,0.1898,0.1907,0,0,0,0,0,0,0.1505,0.1524,0.1536,0.1559,0.1584,0.1598,0.1626,0.1642,0.1683,0.17,0.1709,0.1717,0.1776,0.1776,0.175,0.1834,0.1801,0.1807,0.1835,0.1845,0.1853,0.1848,0.1732,0,0,0,0,0,0.1512,0.1533,0.155,0.1574,0.1589,0.1614,0.1634,0.1654,0.1682,0.1703,0.1729,0.1761,0.1791,0.1814,0.1837,0.1879,0.1878,0.1911,0.1918,0.1925,0.1926,0.1962,0.1972,0.1857,0.1857,0.1857,0,0,0.1521,0.1536,0.1548,0.1578,0.1601,0.1626,0.163,0.167,0.1701,0.1703,0.1767,0.1791,0.1809,0.186,0.1887,0.1869,0.1958,0.193,0.1936,0.1933,0.1967,0.1978,0.1988,0.186,0.186,0.1859,0,0,0.1536,0.1563,0.1582,0.1606,0.1645,0.1659,0.1678,0.1713,0.1745,0.1797,0.1813,0.186,0.1906,0.1927,0.1941,0.2006,0.1999,0.2024,0.206,0.2095,0.2104,0.2112,0.2125,0.2134,0.2027,0.2027,0.2028,0,0.1551,0.1573,0.1594,0.1619,0.1645,0.1677,0.1707,0.1738,0.179,0.1821,0.183,0.1917,0.1934,0.1991,0.2018,0.2023,0.2036,0.202,0.2104,0.2112,0.2119,0.213,0.2139,0.2031,0.203,0.203,0.203,0,0.1567,0.1602,0.1619,0.1659,0.169,0.1725,0.1763,0.181,0.1853,0.1882,0.1961,0.199,0.2039,0.2059,0.2059,0.2128,0.2117,0.2108,0.2075,0.2134,0.2142,0.215,0.2035,0.2034,0.2033,0.2032,0,0,0.1553,0.1618,0.1628,0.1656,0.1718,0.1739,0.1804,0.1861,0.1906,0.1968,0.2026,0.209,0.2114,0.2132,0.2147,0.218,0.2243,0.2173,0.2174,0.2177,0.2315,0.2174,0.2169,0.2255,0.2257,0.2259,0.2298,0,0.1565,0.1612,0.1647,0.1705,0.1731,0.1789,0.184,0.1901,0.1957,0.2021,0.2073,0.2134,0.2139,0.2173,0.2211,0.2238,0.2269,0.2233,0.2264,0.2265,0.2126,0.2175,0.2265,0.2304,0.2306,0.2307,0.2308,0,0.1562,0.1598,0.1653,0.1725,0.1745,0.1789,0.1878,0.193,0.2023,0.2068,0.2142,0.218,0.2253,0.2241,0.2321,0.2302,0.2316,0.2328,0.2329,0.2182,0.2139,0.2235,0.2323,0.2322,0.2321,0.232,0.2319,0,0.1521,0.1598,0.1644,0.167,0.1756,0.1805,0.1861,0.1953,0.2005,0.2108,0.2154,0.2237,0.2291,0.2332,0.237,0.2356,0.2438,0.2416,0.23,0.229,0.238,0.2371,0.2466,0.2466,0.2466,0.2466,0.2465,0,0.1498,0.1539,0.1634,0.1657,0.172,0.1792,0.1869,0.1936,0.2034,0.2087,0.2181,0.2225,0.2321,0.2377,0.2392,0.237,0.2461,0.2309,0.2294,0.2402,0.2395,0.2386,0.2376,0.2467,0.2467,0.2466,0.2466,0,0.1441,0.1505,0.1562,0.1665,0.1702,0.175,0.1869,0.1914,0.202,0.2093,0.2131,0.2243,0.2306,0.2376,0.2442,0.2383,0.2384,0.2355,0.2468,0.2458,0.2204,0.2197,0.2213,0.2208,0.2204,0.2201,0.2198,0,0.1411,0.1437,0.1555,0.1591,0.1646,0.173,0.1781,0.1896,0.1941,0.2079,0.2098,0.2206,0.2264,0.2239,0.2326,0.234,0.232,0.2298,0.2242,0.2195,0.218,0.2179,0.2177,0.2192,0.2191,0.219,0.2189,0,0.1356,0.1415,0.1464,0.1537,0.1601,0.1656,0.174,0.1756,0.1879,0.1991,0.2009,0.2036,0.21,0.2142,0.2177,0.2185,0.2296,0.2256,0.2264,0.2211,0.2171,0.2159,0.2162,0.2175,0.2177,0.2179,0.2179,0,0.1323,0.1342,0.1415,0.1467,0.1541,0.1558,0.1611,0.1652,0.1706,0.1849,0.1851,0.1961,0.2071,0.2063,0.2094,0.2092,0.2056,0.1981,0.2002,0.2018,0.1937,0.1856,0.1753,0,0,0,0,0,0.1279,0.1289,0.1334,0.138,0.1447,0.1485,0.1571,0.1623,0.1736,0.1699,0.1766,0.1811,0.1841,0.1905,0.1865,0.2023,0.2077,0.1968,0.2004,0.2101,0.2116,0.2041,0,0,0,0,0,0,0.1249,0.1291,0.1301,0.1295,0.1309,0.136,0.1408,0.1481,0.1466,0.1587,0.1616,0.1707,0.1773,0.1849,0.1833,0.1854,0.1839,0.2044,0.2039,0.2092,0.2106,0.2119,0.2047,0,0,0,0,0]},{"header":{"parameterUnit":"m.s-1","parameterCategory":2,"la1":30.2991,"la2":30.254,"lo1":-89.0895,"lo2":-89.0444,"dy":0.0017,"dx":0.0017,"nx":28,"ny":28,"refTime":"2025-04-03T21:00:00:Z","depth":"4","parameterNumber":3,"parameterNumberName":"V-component_of_CURRENTS"},"data":[0,0,0,0,0,0,0,0,0,0,0,0,0,0,0,0,0,0,0,0,0,0,0,0,0,0,0,0,0,0,0,0,0,0,0,0,0,0,0,0,0,0,0,0,0,0,0,0,0,0,0,0,0,0,0,0,0,0,-0.0,-0.0001,0,-0.0034,-0.0034,-0.0035,-0.007,-0.007,-0.0071,-0.0071,-0.012,-0.0121,-0.0122,0,0,0,0,0,0,0,0,0,0,0,0,0,0.0007,0.0007,-0.0,-0.0001,-0.0001,-0.0034,-0.0034,-0.0035,-0.007,-0.007,-0.0071,-0.0071,-0.0119,-0.0121,-0.0122,0,0,0,0,0,0,0,0,0,0,0,0,0,-0.0009,0.0007,-0.0,-0.0021,-0.0024,-0.0034,-0.0034,-0.0035,-0.007,-0.007,-0.0071,-0.0071,-0.0119,-0.012,-0.0122,-0.012,0,0,-0.0126,-0.0127,0,0,0,0,0,0,0,0,-0.0008,-0.001,-0.0018,-0.002,-0.0022,-0.0047,-0.005,-0.0064,-0.007,-0.0053,-0.0071,-0.0072,-0.0096,-0.0099,-0.0106,-0.0122,-0.0124,-0.0126,-0.0127,-0.0128,-0.0128,0,0,0,0,0,0,0,-0.0007,-0.0009,-0.0015,-0.0018,-0.0021,-0.0038,-0.0041,-0.0053,-0.0072,-0.0055,-0.0057,-0.0059,-0.0097,-0.0104,-0.0107,-0.0125,-0.0126,-0.0128,-0.0129,-0.0129,-0.0147,-0.0146,0,0,0,0,0,0,0.0002,-0.0007,-0.0014,-0.0016,-0.0015,-0.0038,-0.0041,-0.004,-0.0072,-0.0077,-0.0058,-0.006,-0.0102,-0.0105,-0.0109,-0.0102,-0.0128,-0.0129,-0.013,-0.0147,-0.0147,-0.0146,0,0,0,0,0,0,0.0002,0.0002,-0.0012,-0.0012,-0.0014,-0.0037,-0.0035,-0.004,-0.0047,-0.0074,-0.008,-0.006,-0.0102,-0.0107,-0.0116,-0.0104,-0.013,-0.0131,-0.0148,-0.0147,-0.0147,-0.0092,0,0,0,0,0,0,0.0002,0.0002,0.0006,-0.0011,-0.0014,-0.0012,-0.0035,-0.004,-0.0046,-0.0049,-0.0077,-0.0083,-0.0103,-0.0113,-0.0117,-0.0107,-0.0132,-0.0148,-0.0147,-0.0147,-0.0094,-0.0089,-0.0085,0,0,0,0,0,0.0003,0.0014,0.0006,0.0005,-0.0008,-0.0011,-0.0014,-0.0033,-0.0046,-0.0043,-0.0063,-0.0082,-0.0112,-0.0114,-0.0119,-0.0108,-0.0149,-0.0148,-0.0147,-0.0096,-0.009,-0.0085,0,0,0,0,0,0,0.0019,0.0012,0.0002,0.001,0.0002,-0.0016,-0.0015,-0.0028,-0.0042,-0.0046,-0.0075,-0.0081,-0.0086,-0.0104,-0.0106,-0.0112,-0.0134,-0.0134,-0.0093,-0.0088,-0.0084,-0.0077,-0.0133,0,0,0,0,0,0.0026,0.0032,0.002,0.0026,0.0024,0.0005,0.0001,-0.0011,-0.0025,-0.0032,-0.0051,-0.0072,-0.0085,-0.0092,-0.0108,-0.0108,-0.0132,-0.0106,-0.0101,-0.0098,-0.0095,-0.0122,-0.012,-0.0143,-0.0143,-0.0143,0,0,0.0034,0.003,0.0033,0.003,0.0021,0.0027,0.0001,0.0001,0.0005,-0.0034,-0.0035,-0.0057,-0.0083,-0.0085,-0.0089,-0.0098,-0.0103,-0.0096,-0.0093,-0.0093,-0.0121,-0.0118,-0.0116,-0.0143,-0.0143,-0.0143,0,0,0.0056,0.005,0.0063,0.0061,0.0055,0.0045,0.0048,0.0034,0.0026,0.0023,-0.0005,-0.0019,-0.0039,-0.0055,-0.0065,-0.0046,-0.008,-0.0052,-0.0021,-0.0047,-0.0045,-0.0044,-0.0067,-0.0069,-0.0048,-0.0048,-0.0048,0,0.0065,0.0079,0.0066,0.0078,0.0081,0.0058,0.0072,0.0065,0.0049,0.0046,0.003,-0.0002,-0.0024,-0.0029,-0.0024,-0.0036,-0.0057,-0.0037,-0.0041,-0.004,-0.004,-0.0064,-0.0066,-0.0045,-0.0045,-0.0045,-0.0046,0,0.0095,0.0106,0.0115,0.0122,0.0125,0.0134,0.0124,0.0125,0.0111,0.0097,0.0087,0.0054,0.0035,0.0026,0.0007,0.0002,-0.0015,-0.0033,-0.0052,-0.0034,-0.0061,-0.0064,-0.0041,-0.0042,-0.0043,-0.0043,0,0,0.0114,0.0133,0.0136,0.0147,0.0149,0.0155,0.0168,0.017,0.0177,0.0153,0.0156,0.0127,0.0102,0.0088,0.0061,0.0038,0.0022,0.0008,0.0005,-0.0011,-0.0034,-0.0038,-0.0042,0.0003,0.0003,0.0003,-0.0052,0,0.014,0.0173,0.0175,0.0206,0.0222,0.0213,0.0229,0.0227,0.0215,0.0212,0.0175,0.0166,0.0129,0.0121,0.0093,0.0042,0.0016,0.0039,-0.0052,-0.0055,-0.0058,-0.0045,0.0002,-0.0054,-0.0055,-0.0056,-0.0056,0,0.0167,0.0186,0.0223,0.025,0.0257,0.0273,0.029,0.0302,0.0293,0.0281,0.0259,0.0229,0.0199,0.0161,0.0082,0.0098,0.0038,-0.0008,-0.0012,-0.0037,-0.0065,-0.0079,-0.0062,-0.0062,-0.0061,-0.0061,-0.0061,0,0.0184,0.0219,0.025,0.0259,0.0286,0.0303,0.0318,0.0322,0.034,0.0324,0.0327,0.0279,0.0263,0.0183,0.0094,0.0086,-0.0,-0.0024,-0.0087,-0.0088,-0.0093,-0.0094,-0.0087,-0.0087,-0.0087,-0.0086,-0.0086,0,0.0207,0.0232,0.0262,0.0277,0.032,0.033,0.0369,0.0373,0.0389,0.0411,0.0365,0.0366,0.0267,0.0209,0.0113,0.001,0.0013,-0.0079,-0.0101,-0.0068,-0.0066,-0.0095,-0.0096,-0.0088,-0.0088,-0.0088,-0.0087,0,0.0217,0.0237,0.0275,0.0313,0.0329,0.0359,0.0411,0.0438,0.0445,0.0472,0.0473,0.0436,0.0361,0.0256,0.0131,0.0046,-0.006,-0.0101,-0.0049,-0.0068,-0.0138,-0.0135,-0.0176,-0.0177,-0.0177,-0.0177,-0.0178,0,0.0224,0.0245,0.0299,0.0327,0.0345,0.0393,0.043,0.046,0.049,0.0513,0.0527,0.048,0.0435,0.0267,0.0144,-0.0032,-0.0065,-0.0126,-0.0143,-0.0129,-0.0147,-0.0143,-0.0139,-0.0179,-0.0179,-0.0179,-0.0179,0,0.0235,0.0255,0.0286,0.0344,0.0388,0.044,0.0492,0.0522,0.0559,0.0571,0.0573,0.0494,0.0412,0.0278,0.0147,0.0014,-0.0089,-0.0132,-0.0132,-0.0148,-0.0133,-0.0149,-0.0145,-0.0181,-0.018,-0.018,-0.018,0,0.0242,0.0263,0.0304,0.0355,0.0412,0.0465,0.0497,0.0539,0.0575,0.0602,0.0603,0.0517,0.0477,0.0302,0.0178,0.0055,0.001,-0.005,-0.0055,-0.0055,-0.0009,0.003,0.0017,0,0,0,0,0,0.0246,0.0265,0.0312,0.0365,0.0424,0.0456,0.0528,0.0558,0.0599,0.0607,0.0609,0.0533,0.037,0.0308,0.0184,0.0145,-0.0027,-0.0009,-0.0102,-0.019,-0.0188,-0.0155,0,0,0,0,0,0,0.0247,0.0285,0.0303,0.0362,0.0398,0.0462,0.0508,0.0542,0.0551,0.0579,0.0504,0.0478,0.0328,0.0438,0.0173,0.0138,0.0055,-0.0076,-0.0079,-0.0191,-0.0189,-0.0188,-0.0153,0,0,0,0,0]}]]